This is the latest recevied weather packets stored in our database for station/object OK1JRA-20. If no packets are shown the sender has not sent any weather packets the latest 10 day(s).
| Time | Temp. | Humidity | Pressure | Rain* | Wind** | Luminosity | Snow |
|---|---|---|---|---|---|---|---|
| 1788426309 | 27.78° C | 34% | 980.3 hPa | - | - | - | - |
| 1788425413 | 27.78° C | 34% | 980.2 hPa | - | - | - | - |
| 1788425413 | 27.78° C | 34% | 980.2 hPa | - | - | - | - |
| 1788425410 | 27.78° C | 34% | 980.2 hPa | - | - | - | - |
| 1788425409 | 27.78° C | 34% | 980.2 hPa | - | - | - | - |
| 1788425409 | 27.78° C | 34% | 980.2 hPa | - | - | - | - |
| 1788424514 | 27.78° C | 34% | 980 hPa | - | - | - | - |
| 1788424509 | 27.78° C | 34% | 980 hPa | - | - | - | - |
| 1788424508 | 27.78° C | 34% | 980 hPa | - | - | - | - |
| 1788423618 | 28.89° C | 34% | 980.5 hPa | - | - | - | - |
| 1788423617 | 28.89° C | 34% | 980.5 hPa | - | - | - | - |
| 1788423612 | 28.89° C | 34% | 980.5 hPa | - | - | - | - |
| 1788423612 | 28.89° C | 34% | 980.5 hPa | - | - | - | - |
| 1788422709 | 27.78° C | 36% | 980.4 hPa | - | - | - | - |
| 1788422709 | 27.78° C | 36% | 980.4 hPa | - | - | - | - |
| 1788421815 | 27.22° C | 36% | 980.6 hPa | - | - | - | - |
| 1788421809 | 27.22° C | 36% | 980.6 hPa | - | - | - | - |
| 1788421809 | 27.22° C | 36% | 980.6 hPa | - | - | - | - |
| 1788421809 | 27.22° C | 36% | 980.6 hPa | - | - | - | - |
| 1788420915 | 26.67° C | 38% | 980.7 hPa | - | - | - | - |
| 1788420910 | 26.67° C | 38% | 980.7 hPa | - | - | - | - |
| 1788420909 | 26.67° C | 38% | 980.7 hPa | - | - | - | - |
| 1788420908 | 26.67° C | 38% | 980.7 hPa | - | - | - | - |
| 1788420015 | 25.56° C | 41% | 980.7 hPa | - | - | - | - |
| 1788420010 | 25.56° C | 41% | 980.7 hPa | - | - | - | - |
* Rain since midnight (hover to see other rain measurements)
** Current wind speed in m/s (hover to see current wind gust speed)